EW8032 Weather Reports


Display with metric or nautical units.
time (UTC)temp
F
wind
direction
speed
MPH
gust
MPH
rain 1hr
in
rain 24hr
in
rain mn
in
humidity
%
barometer
mb
20260905012525 67 231 0.0 0.0 0.00 0.00 0.00 97 1023.3
20260905012405 67 231 0.0 0.0 0.00 0.00 0.00 97 1023.3
20260905012327 67 231 0.0 0.0 0.00 0.00 0.00 97 1023.3
20260905012230 67 231 0.0 0.0 0.00 0.00 0.00 97 1023.2
20260905012040 67 231 0.0 0.0 0.00 0.00 0.00 97 1023.3
20260905011329 67 231 0.0 0.0 0.00 0.00 0.00 97 1023.3
20260905011252 70 250 0.0 2.0 0.00 0.00 0.00 95 1023.2
20260905011214 67 231 0.0 0.0 0.00 0.00 0.00 97 1023.3
20260905011110 67 231 0.0 0.0 0.00 0.00 0.00 97 1023.3
20260905010924 67 231 0.0 0.0 0.00 0.00 0.00 97 1023.3
20260905010908 67 231 0.0 0.0 0.00 0.00 0.00 97 1023.2
20260905010452 67 231 0.0 0.0 0.00 0.00 0.00 97 1023.3
20260905010334 67 231 0.0 0.0 0.00 0.00 0.00 97 1023.2
20260905010320 70 274 0.0 0.0 0.00 0.00 0.00 95 1023.2
20260905010211 67 231 0.0 0.0 0.00 0.00 0.00 97 1023.3
20260905010146 70 274 0.0 1.0 0.00 0.00 0.00 95 1023.1
20260905010116 70 274 0.0 1.0 0.00 0.00 0.00 95 1023.2
20260905010026 67 231 0.0 0.0 0.00 0.00 0.00 97 1023.3
20260905005844 67 231 0.0 0.0 0.00 0.00 0.00 97 1023.4
20260905005759 67 231 0.0 0.0 0.00 0.00 0.00 97 1023.4
20260905005708 67 231 0.0 0.0 0.00 0.00 0.00 97 1023.5
20260905005616 67 231 0.0 0.0 0.00 0.00 0.00 97 1023.4
20260905005539 67 231 0.0 0.0 0.00 0.00 0.00 97 1023.4
20260905005420 67 231 0.0 0.0 0.00 0.00 0.00 97 1023.3
20260905005128 67 231 0.0 0.0 0.00 0.00 0.00 97 1023.4
20260905005030 67 231 0.0 0.0 0.00 0.00 0.00 97 1023.3
20260905004313 67 231 0.0 0.0 0.00 0.00 0.00 97 1023.3
20260905004218 67 231 0.0 0.0 0.00 0.00 0.00 97 1023.4
20260905003829 67 231 0.0 0.0 0.00 0.00 0.00 97 1023.5
20260905003737 67 231 0.0 0.0 0.00 0.00 0.00 97 1023.5
20260905003636 67 231 0.0 0.0 0.00 0.00 0.00 97 1023.4
20260905003531 67 231 0.0 0.0 0.00 0.00 0.00 97 1023.4
20260905003503 67 231 0.0 0.0 0.00 0.00 0.00 97 1023.4
20260905003019 68 231 0.0 0.0 0.00 0.00 0.00 97 1023.4
20260905002603 68 231 0.0 0.0 0.00 0.00 0.00 97 1023.3
20260905002436 68 231 0.0 0.0 0.00 0.00 0.00 97 1023.3
20260905002306 68 231 0.0 0.0 0.00 0.00 0.00 97 1023.2
20260905002200 68 231 0.0 0.0 0.00 0.00 0.00 97 1023.3
20260905002001 68 231 0.0 0.0 0.00 0.00 0.00 96 1023.3
20260905001820 68 231 0.0 0.0 0.00 0.00 0.00 96 1023.4
20260905001802 68 231 0.0 0.0 0.00 0.00 0.00 97 1023.4
20260905001713 68 231 0.0 0.0 0.00 0.00 0.00 97 1023.4
20260905001615 68 231 0.0 0.0 0.00 0.00 0.00 96 1023.4
20260905001144 68 231 0.0 0.0 0.00 0.00 0.00 96 1023.4
20260905001125 70 238 0.0 1.0 0.00 0.00 0.00 94 1023.2
20260905000940 68 231 0.0 0.0 0.00 0.00 0.00 96 1023.4
20260905000803 68 231 0.0 0.0 0.00 0.00 0.00 96 1023.4
20260905000739 68 231 0.0 0.0 0.00 0.00 0.00 96 1023.4
20260905000542 68 231 0.0 0.0 0.00 0.00 0.00 96 1023.4
20260905000403 68 231 0.0 0.0 0.00 0.00 0.00 96 1023.4
20260905000318 68 231 0.0 0.0 0.00 0.00 0.00 96 1023.4
20260905000228 68 231 0.0 0.0 0.00 0.00 0.00 97 1023.4
20260905000117 68 231 0.0 0.0 0.00 0.00 0.00 96 1023.4
20260904235956 68 231 0.0 0.0 0.00 0.00 0.00 96 1023.5
20260904235545 68 231 0.0 0.0 0.00 0.00 0.00 96 1023.4
20260904235314 68 231 0.0 0.0 0.00 0.00 0.00 96 1023.4
20260904235259 70 233 0.0 7.0 0.00 0.00 0.00 93 1023.3
20260904235211 71 266 4.0 11.0 0.00 0.00 0.00 91 1023.3
20260904235114 68 231 0.0 0.0 0.00 0.00 0.00 96 1023.3
20260904234941 68 231 0.0 0.0 0.00 0.00 0.00 96 1023.3
20260904234813 68 231 0.0 0.0 0.00 0.00 0.00 96 1023.3
20260904234755 71 259 2.0 6.0 0.00 0.00 0.00 91 1023.3
20260904234721 69 231 0.0 0.0 0.00 0.00 0.00 96 1023.3
20260904234628 69 231 0.0 0.0 0.00 0.00 0.00 96 1023.3
20260904234418 69 231 0.0 0.0 0.00 0.00 0.00 96 1023.3
20260904233955 69 231 0.0 0.0 0.00 0.00 0.00 96 1023.2
20260904233923 69 231 0.0 0.0 0.00 0.00 0.00 96 1023.3
20260904233830 69 231 0.0 0.0 0.00 0.00 0.00 96 1023.3
20260904233722 69 231 0.0 0.0 0.00 0.00 0.00 96 1023.2
20260904233429 69 231 0.0 0.0 0.00 0.00 0.00 96 1023.3
20260904233244 69 231 0.0 0.0 0.00 0.00 0.00 96 1023.3
20260904233141 69 231 0.0 0.0 0.00 0.00 0.00 96 1023.2
20260904233114 69 231 0.0 0.0 0.00 0.00 0.00 96 1023.3
20260904232643 69 231 0.0 0.0 0.00 0.00 0.00 96 1023.3
20260904232547 69 231 0.0 0.0 0.00 0.00 0.00 96 1023.3
20260904232111 69 231 0.0 0.0 0.00 0.00 0.00 96 1023.3
20260904231748 71 250 2.0 8.0 0.00 0.00 0.00 91 1023.1
20260904231715 69 231 0.0 0.0 0.00 0.00 0.00 96 1023.3
20260904231606 69 231 0.0 0.0 0.00 0.00 0.00 96 1023.3
20260904231511 69 231 0.0 0.0 0.00 0.00 0.00 96 1023.3
20260904231323 69 231 0.0 0.0 0.00 0.00 0.00 96 1023.3
20260904231214 69 231 0.0 0.0 0.00 0.00 0.00 96 1023.3
20260904231150 69 231 0.0 0.0 0.00 0.00 0.00 96 1023.3
20260904231030 69 231 0.0 0.0 0.00 0.00 0.00 96 1023.2
20260904230925 69 231 0.0 0.0 0.00 0.00 0.00 96 1023.2
20260904230813 69 231 0.0 0.0 0.00 0.00 0.00 96 1023.1
20260904230732 69 231 0.0 0.0 0.00 0.00 0.00 96 1023.3
20260904230414 69 231 0.0 0.0 0.00 0.00 0.00 96 1023.2
20260904230343 69 231 0.0 0.0 0.00 0.00 0.00 96 1023.2
20260904230247 69 231 0.0 0.0 0.00 0.00 0.00 96 1023.2
20260904230153 69 231 0.0 0.0 0.00 0.00 0.00 96 1023.3
20260904230053 69 231 0.0 0.0 0.00 0.00 0.00 95 1023.2
20260904225949 69 231 0.0 0.0 0.00 0.00 0.00 95 1023.2
20260904225922 69 231 0.0 0.0 0.00 0.00 0.00 95 1023.2
20260904225900 69 231 0.0 0.0 0.00 0.00 0.00 95 1023.2
20260904225757 69 231 0.0 0.0 0.00 0.00 0.00 95 1023.2
20260904225715 69 231 0.0 0.0 0.00 0.00 0.00 95 1023.2
20260904225633 69 231 0.0 0.0 0.00 0.00 0.00 95 1023.2
20260904225542 69 231 0.0 0.0 0.00 0.00 0.00 95 1023.3
20260904225507 69 231 0.0 0.0 0.00 0.00 0.00 95 1023.3
20260904225445 69 231 0.0 0.0 0.00 0.00 0.00 95 1023.3
20260904224849 69 231 0.0 0.0 0.00 0.00 0.00 95 1023.2
20260904224807 69 231 0.0 0.0 0.00 0.00 0.00 95 1023.3
20260904224719 69 231 0.0 0.0 0.00 0.00 0.00 95 1023.2
20260904224406 69 231 0.0 1.0 0.00 0.00 0.00 95 1023.2
20260904224315 69 231 0.0 1.0 0.00 0.00 0.00 95 1023.2
20260904224011 69 231 0.0 1.0 0.00 0.00 0.00 95 1023.2
20260904223935 69 231 0.0 1.0 0.00 0.00 0.00 95 1023.2
20260904223830 69 231 0.0 1.0 0.00 0.00 0.00 95 1023.2
20260904223802 70 231 0.0 1.0 0.00 0.00 0.00 95 1023.1
20260904223415 70 250 0.0 2.0 0.00 0.00 0.00 95 1023.1
20260904223331 69 250 0.0 2.0 0.00 0.00 0.00 95 1023.2
20260904223318 69 250 0.0 2.0 0.00 0.00 0.00 95 1023.2
20260904223231 70 250 0.0 2.0 0.00 0.00 0.00 95 1023.3
20260904223114 70 250 0.0 2.0 0.00 0.00 0.00 95 1023.3
20260904223049 70 250 0.0 2.0 0.00 0.00 0.00 95 1023.2
20260904222952 70 274 0.0 0.0 0.00 0.00 0.00 95 1023.3
20260904222104 70 274 0.0 1.0 0.00 0.00 0.00 94 1023.2
20260904221952 70 274 0.0 1.0 0.00 0.00 0.00 94 1023.2
20260904221909 70 274 0.0 1.0 0.00 0.00 0.00 94 1023.0
20260904221508 70 238 0.0 1.0 0.00 0.00 0.00 94 1023.1
20260904221448 70 238 0.0 1.0 0.00 0.00 0.00 94 1023.1
20260904221353 70 238 0.0 1.0 0.00 0.00 0.00 94 1023.2
20260904221200 70 233 0.0 0.0 0.00 0.00 0.00 94 1023.0
20260904221115 70 233 0.0 0.0 0.00 0.00 0.00 94 1023.1
20260904221009 70 233 0.0 0.0 0.00 0.00 0.00 94 1023.1
20260904220937 70 233 0.0 0.0 0.00 0.00 0.00 94 1023.2
20260904220904 70 233 0.0 0.0 0.00 0.00 0.00 93 1023.2
20260904220758 70 233 0.0 0.0 0.00 0.00 0.00 93 1023.2
20260904220704 70 233 0.0 0.0 0.00 0.00 0.00 93 1023.2
20260904220612 70 233 0.0 0.0 0.00 0.00 0.00 93 1023.2
20260904220516 70 233 0.0 5.0 0.00 0.00 0.00 93 1023.2
20260904220448 70 233 0.0 7.0 0.00 0.00 0.00 93 1023.2
20260904220429 70 233 0.0 7.0 0.00 0.00 0.00 93 1023.2
20260904220346 70 233 0.0 7.0 0.00 0.00 0.00 93 1023.2
20260904220301 70 233 0.0 7.0 0.00 0.00 0.00 93 1023.3
20260904215953 70 233 2.0 7.0 0.00 0.00 0.00 93 1023.3
20260904215830 70 201 0.0 7.0 0.00 0.00 0.00 93 1023.3
20260904215740 70 232 0.0 8.0 0.00 0.00 0.00 92 1023.3
20260904215657 70 228 1.0 8.0 0.00 0.00 0.00 92 1023.3
20260904215540 70 244 2.0 9.0 0.00 0.00 0.00 92 1023.3
20260904215408 70 244 3.0 9.0 0.00 0.00 0.00 92 1023.3
20260904215223 71 241 3.0 9.0 0.00 0.00 0.00 92 1023.3
20260904215048 71 244 4.0 13.0 0.00 0.00 0.00 92 1023.3
20260904214947 71 257 4.0 13.0 0.00 0.00 0.00 92 1023.3
20260904214904 71 228 2.0 13.0 0.00 0.00 0.00 92 1023.2
20260904214720 71 244 2.0 13.0 0.00 0.00 0.00 92 1023.3
20260904214525 71 250 3.0 13.0 0.00 0.00 0.00 92 1023.3
20260904214340 71 278 8.0 13.0 0.00 0.00 0.00 92 1023.2
20260904213904 71 269 2.0 9.0 0.00 0.00 0.00 91 1023.2
20260904213423 71 243 1.0 7.0 0.00 0.00 0.00 91 1023.1
20260904213250 71 254 2.0 7.0 0.00 0.00 0.00 91 1023.1
20260904213246 71 254 2.0 7.0 0.00 0.00 0.00 91 1023.1
20260904212722 71 266 3.0 8.0 0.00 0.00 0.00 91 1023.0
20260904212635 71 258 4.0 8.0 0.00 0.00 0.00 91 1023.0
20260904212533 71 271 4.0 8.0 0.00 0.00 0.00 91 1023.1
20260904212400 71 255 3.0 8.0 0.00 0.00 0.00 91 1023.0
20260904212213 71 281 3.0 9.0 0.00 0.00 0.00 91 1023.0
20260904212209 71 265 3.0 9.0 0.00 0.00 0.00 91 1023.0
20260904212048 71 254 1.0 9.0 0.00 0.00 0.00 91 1022.9
20260904211758 72 293 2.0 9.0 0.00 0.00 0.00 91 1023.0
20260904211318 72 284 4.0 9.0 0.00 0.00 0.00 90 1022.8
20260904210923 72 248 3.0 8.0 0.00 0.00 0.00 90 1022.7
20260904210736 72 231 3.0 8.0 0.00 0.00 0.00 90 1022.8
20260904210603 72 275 2.0 8.0 0.00 0.00 0.00 90 1022.6
20260904210521 72 250 3.0 8.0 0.00 0.00 0.00 90 1022.7
20260904210424 72 250 4.0 8.0 0.00 0.00 0.00 90 1022.6
20260904210238 72 270 3.0 8.0 0.00 0.00 0.00 90 1022.6
20260904210118 72 268 2.0 8.0 0.00 0.00 0.00 90 1022.6
20260904210057 72 271 2.0 8.0 0.00 0.00 0.00 90 1022.6
20260904205916 72 242 1.0 8.0 0.00 0.00 0.00 90 1022.6
20260904205744 72 212 1.0 8.0 0.00 0.00 0.00 90 1022.5
20260904205718 72 212 2.0 8.0 0.00 0.00 0.00 90 1022.4
20260904205615 73 247 4.0 8.0 0.00 0.00 0.00 89 1022.5
20260904205426 73 256 3.0 9.0 0.00 0.00 0.00 89 1022.4
20260904205309 73 244 3.0 9.0 0.00 0.00 0.00 89 1022.4
20260904205239 73 259 3.0 9.0 0.00 0.00 0.00 89 1022.4
20260904205053 73 235 4.0 9.0 0.00 0.00 0.00 89 1022.4
20260904204629 73 247 5.0 9.0 0.00 0.00 0.00 89 1022.4
20260904204130 73 225 6.0 10.0 0.00 0.00 0.00 88 1022.3
20260904204059 73 280 6.0 10.0 0.00 0.00 0.00 88 1022.3
20260904203921 73 242 4.0 10.0 0.00 0.00 0.00 88 1022.3
20260904203742 74 255 4.0 10.0 0.00 0.00 0.00 88 1022.1
20260904203344 74 244 5.0 10.0 0.00 0.00 0.00 88 1022.1
20260904203153 74 269 5.0 11.0 0.00 0.00 0.00 87 1022.1
20260904203036 74 240 5.0 11.0 0.00 0.00 0.00 87 1022.0
20260904203004 74 292 5.0 11.0 0.00 0.00 0.00 87 1022.1
20260904202829 74 243 6.0 11.0 0.00 0.00 0.00 87 1021.9
20260904202644 74 273 6.0 11.0 0.00 0.00 0.00 86 1021.9
20260904202613 74 242 6.0 11.0 0.00 0.00 0.00 86 1021.9
20260904202457 74 234 6.0 11.0 0.00 0.00 0.00 86 1021.9
20260904202315 74 267 6.0 11.0 0.00 0.00 0.00 85 1021.8
20260904201834 75 241 5.0 13.0 0.00 0.00 0.00 84 1021.8
20260904201655 75 242 5.0 13.0 0.00 0.00 0.00 83 1021.7
20260904201620 75 234 6.0 13.0 0.00 0.00 0.00 83 1021.7
20260904201504 75 259 6.0 13.0 0.00 0.00 0.00 83 1021.6
20260904201120 76 237 7.0 13.0 0.00 0.00 0.00 83 1021.7
20260904201046 76 250 7.0 13.0 0.00 0.00 0.00 82 1021.8
20260904195336 76 250 6.0 10.0 0.00 0.00 0.00 79 1021.2
20260904195310 76 246 7.0 10.0 0.00 0.00 0.00 79 1021.2
20260904195143 77 273 6.0 11.0 0.00 0.00 0.00 78 1021.2
20260904195000 77 259 7.0 11.0 0.00 0.00 0.00 77 1021.1
20260904194854 77 280 5.0 11.0 0.00 0.00 0.00 77 1021.0
20260904194814 77 280 5.0 11.0 0.00 0.00 0.00 76 1021.0
20260904194629 77 283 6.0 11.0 0.00 0.00 0.00 76 1020.9
20260904194444 77 311 8.0 11.0 0.00 0.00 0.00 75 1020.9
20260904194427 77 269 7.0 11.0 0.00 0.00 0.00 75 1020.9
20260904194254 78 244 5.0 9.0 0.00 0.00 0.00 75 1020.9
20260904194112 78 255 5.0 9.0 0.00 0.00 0.00 74 1020.8
20260904194011 78 248 5.0 9.0 0.00 0.00 0.00 73 1020.7
20260904193923 78 238 5.0 9.0 0.00 0.00 0.00 73 1020.7
20260904193740 78 200 5.0 9.0 0.00 0.00 0.00 72 1020.6
20260904193556 78 252 4.0 9.0 0.00 0.00 0.00 72 1020.5
20260904193545 78 248 6.0 9.0 0.00 0.00 0.00 72 1020.5
20260904193401 78 262 4.0 9.0 0.00 0.00 0.00 71 1020.5
20260904193209 79 263 3.0 6.0 0.00 0.00 0.00 70 1020.4
20260904193110 79 265 3.0 6.0 0.00 0.00 0.00 69 1020.3
20260904192536 79 263 4.0 8.0 0.00 0.00 0.00 68 1020.2
20260904192408 79 239 3.0 9.0 0.00 0.00 0.00 67 1020.2
20260904192229 79 234 4.0 9.0 0.00 0.00 0.00 67 1020.1
20260904191742 80 240 6.0 9.0 0.00 0.00 0.00 66 1020.1
20260904191550 80 272 5.0 9.0 0.00 0.00 0.00 65 1020.1
20260904191416 80 275 4.0 8.0 0.00 0.00 0.00 65 1019.9
20260904191018 80 257 4.0 8.0 0.00 0.00 0.00 64 1019.8
20260904190435 81 292 4.0 8.0 0.00 0.00 0.00 63 1019.7
20260904190431 81 292 4.0 8.0 0.00 0.00 0.00 63 1019.7
20260904190247 81 270 5.0 8.0 0.00 0.00 0.00 63 1019.7
20260904190107 81 252 4.0 10.0 0.00 0.00 0.00 62 1019.7
20260904190016 81 291 4.0 11.0 0.00 0.00 0.00 62 1019.7
20260904185917 81 273 4.0 11.0 0.00 0.00 0.00 62 1019.6
20260904185732 82 267 5.0 11.0 0.00 0.00 0.00 61 1019.7
20260904185552 82 250 4.0 11.0 0.00 0.00 0.00 61 1019.6
20260904185542 82 263 4.0 11.0 0.00 0.00 0.00 61 1019.6
20260904185358 82 263 7.0 11.0 0.00 0.00 0.00 60 1019.7
20260904185217 82 265 5.0 11.0 0.00 0.00 0.00 60 1019.6
20260904185124 82 257 5.0 9.0 0.00 0.00 0.00 59 1019.7
20260904184715 83 279 5.0 9.0 0.00 0.00 0.00 58 1019.5
20260904184537 83 246 5.0 10.0 0.00 0.00 0.00 58 1019.4
20260904184524 83 246 5.0 10.0 0.00 0.00 0.00 58 1019.4
20260904184338 83 251 4.0 10.0 0.00 0.00 0.00 57 1019.5
20260904184153 83 257 5.0 10.0 0.00 0.00 0.00 57 1019.4
20260904184111 83 259 5.0 10.0 0.00 0.00 0.00 57 1019.4
20260904184005 83 273 6.0 10.0 0.00 0.00 0.00 56 1019.5
20260904183514 84 248 6.0 9.0 0.00 0.00 0.00 55 1019.5
20260904183501 84 246 6.0 9.0 0.00 0.00 0.00 55 1019.6
20260904183315 84 268 6.0 9.0 0.00 0.00 0.00 55 1019.4
20260904183130 84 285 6.0 9.0 0.00 0.00 0.00 55 1019.4
20260904182724 84 279 7.0 9.0 0.00 0.00 0.00 54 1019.4
20260904182546 85 281 6.0 9.0 0.00 0.00 0.00 54 1019.4
20260904182422 85 248 6.0 9.0 0.00 0.00 0.00 54 1019.4
20260904182359 85 248 6.0 9.0 0.00 0.00 0.00 53 1019.4
20260904181814 85 263 5.0 9.0 0.00 0.00 0.00 53 1019.4
20260904181736 85 254 6.0 9.0 0.00 0.00 0.00 52 1019.4
20260904181622 85 257 7.0 9.0 0.00 0.00 0.00 52 1019.3
20260904181442 85 267 6.0 9.0 0.00 0.00 0.00 51 1019.3
20260904181325 86 265 6.0 9.0 0.00 0.00 0.00 51 1019.3
20260904181254 86 253 6.0 9.0 0.00 0.00 0.00 51 1019.3
20260904181110 86 252 6.0 9.0 0.00 0.00 0.00 50 1019.3
20260904180935 86 252 5.0 9.0 0.00 0.00 0.00 50 1019.3
20260904180859 86 248 4.0 8.0 0.00 0.00 0.00 49 1019.3
20260904180741 87 240 4.0 7.0 0.00 0.00 0.00 49 1019.2
20260904180549 87 236 4.0 7.0 0.00 0.00 0.00 49 1019.2
20260904180433 87 285 3.0 9.0 0.00 0.00 0.00 48 1019.2
20260904180408 87 251 3.0 9.0 0.00 0.00 0.00 48 1019.1
20260904180220 87 256 5.0 9.0 0.00 0.00 0.00 47 1019.2
20260904180038 87 288 5.0 9.0 0.00 0.00 0.00 47 1019.1
20260904180001 87 268 4.0 9.0 0.00 0.00 0.00 46 1019.1
20260904175850 87 261 5.0 9.0 0.00 0.00 0.00 47 1019.1
20260904175709 88 259 6.0 9.0 0.00 0.00 0.00 46 1019.1
20260904175551 88 265 5.0 8.0 0.00 0.00 0.00 46 1019.1
20260904175513 88 281 5.0 8.0 0.00 0.00 0.00 45 1019.1
20260904175333 88 298 5.0 8.0 0.00 0.00 0.00 45 1019.0
20260904175142 88 274 5.0 8.0 0.00 0.00 0.00 45 1019.1
20260904175124 88 279 4.0 8.0 0.00 0.00 0.00 45 1019.1
20260904174700 88 248 5.0 9.0 0.00 0.00 0.00 45 1019.1
20260904174558 89 254 6.0 9.0 0.00 0.00 0.00 45 1019.1
20260904174515 89 267 6.0 9.0 0.00 0.00 0.00 44 1019.1
20260904174330 89 269 5.0 9.0 0.00 0.00 0.00 44 1019.0
20260904173951 89 267 7.0 12.0 0.00 0.00 0.00 45 1019.0
20260904173818 89 272 7.0 12.0 0.00 0.00 0.00 45 1019.0
20260904173633 89 259 4.0 12.0 0.00 0.00 0.00 45 1019.0
20260904173531 89 261 7.0 12.0 0.00 0.00 0.00 45 1019.0
20260904173447 89 267 8.0 12.0 0.00 0.00 0.00 45 1019.0
20260904173300 89 263 6.0 12.0 0.00 0.00 0.00 44 1019.1
20260904173113 90 279 6.0 10.0 0.00 0.00 0.00 45 1019.0
20260904173105 90 279 7.0 10.0 0.00 0.00 0.00 45 1019.0
20260904172238 91 300 6.0 9.0 0.00 0.00 0.00 45 1019.0
20260904172042 91 271 4.0 8.0 0.00 0.00 0.00 46 1019.0
20260904171902 91 243 3.0 8.0 0.00 0.00 0.00 46 1019.0
20260904171509 91 228 4.0 9.0 0.00 0.00 0.00 47 1019.0
20260904171423 91 244 5.0 10.0 0.00 0.00 0.00 47 1019.0
20260904171248 92 247 3.0 10.0 0.00 0.00 0.00 45 1018.9
20260904171107 92 252 4.0 10.0 0.00 0.00 0.00 45 1018.9
20260904170931 92 250 6.0 10.0 0.00 0.00 0.00 45 1019.0
20260904170748 92 267 5.0 10.0 0.00 0.00 0.00 44 1018.9
20260904170257 93 283 4.0 10.0 0.00 0.00 0.00 44 1018.9
20260904170106 93 243 4.0 10.0 0.00 0.00 0.00 43 1018.9
20260904165929 93 255 4.0 10.0 0.00 0.00 0.00 42 1019.0
20260904165736 93 244 3.0 8.0 0.00 0.00 0.00 42 1018.9
20260904165638 94 234 2.0 8.0 0.00 0.00 0.00 42 1018.9
20260904165549 94 257 2.0 8.0 0.00 0.00 0.00 41 1019.0
20260904165204 94 240 3.0 8.0 0.00 0.00 0.00 40 1018.9
20260904164730 94 232 5.0 8.0 0.00 0.00 0.00 39 1019.0
20260904164634 94 253 6.0 8.0 0.00 0.00 0.00 39 1018.9
20260904164541 94 254 4.0 8.0 0.00 0.00 0.00 38 1018.9
20260904164024 94 215 3.0 10.0 0.00 0.00 0.00 37 1018.9
20260904163852 94 225 3.0 10.0 0.00 0.00 0.00 38 1018.9
20260904163713 94 216 3.0 10.0 0.00 0.00 0.00 37 1018.9
20260904163614 94 245 2.0 10.0 0.00 0.00 0.00 37 1018.9
20260904163528 94 248 3.0 10.0 0.00 0.00 0.00 38 1018.8
20260904163358 94 243 6.0 11.0 0.00 0.00 0.00 37 1018.8
20260904163131 94 257 3.0 11.0 0.00 0.00 0.00 37 1018.8
20260904162955 95 236 4.0 11.0 0.00 0.00 0.00 37 1018.8
20260904162539 95 274 5.0 11.0 0.00 0.00 0.00 37 1018.9
20260904162401 95 251 6.0 11.0 0.00 0.00 0.00 37 1019.0
20260904162200 95 242 5.0 11.0 0.00 0.00 0.00 36 1018.9
20260904161657 95 238 4.0 12.0 0.00 0.00 0.00 38 1018.9
20260904161602 95 242 6.0 14.0 0.00 0.00 0.00 37 1018.9
20260904161510 95 306 8.0 14.0 0.00 0.00 0.00 35 1019.0
20260904161330 95 269 6.0 14.0 0.00 0.00 0.00 35 1018.9
20260904161129 95 275 7.0 14.0 0.00 0.00 0.00 35 1018.8
20260904160950 95 263 9.0 14.0 0.00 0.00 0.00 36 1018.8
20260904160814 95 271 4.0 13.0 0.00 0.00 0.00 36 1018.8
20260904160345 96 253 3.0 12.0 0.00 0.00 0.00 37 1018.8
20260904160025 96 232 4.0 12.0 0.00 0.00 0.00 37 1018.8
20260904155847 96 236 4.0 12.0 0.00 0.00 0.00 37 1018.8
20260904155659 96 245 4.0 12.0 0.00 0.00 0.00 37 1018.8
20260904155603 96 241 6.0 12.0 0.00 0.00 0.00 36 1018.8
20260904155124 96 254 6.0 12.0 0.00 0.00 0.00 35 1018.7
20260904154938 96 235 5.0 9.0 0.00 0.00 0.00 35 1018.8
20260904154805 96 232 3.0 8.0 0.00 0.00 0.00 35 1018.7
20260904154619 97 206 4.0 8.0 0.00 0.00 0.00 34 1018.7
20260904154524 97 234 4.0 8.0 0.00 0.00 0.00 34 1018.8
20260904154436 97 234 4.0 8.0 0.00 0.00 0.00 34 1018.7
20260904154259 97 254 3.0 8.0 0.00 0.00 0.00 34 1018.7
20260904154110 97 215 4.0 8.0 0.00 0.00 0.00 33 1018.7
20260904153928 97 233 2.0 4.0 0.00 0.00 0.00 33 1018.8
20260904153759 97 224 2.0 4.0 0.00 0.00 0.00 33 1018.7
20260904153335 97 204 3.0 7.0 0.00 0.00 0.00 33 1018.7
20260904153156 97 205 3.0 7.0 0.00 0.00 0.00 33 1018.7
20260904152634 98 221 3.0 7.0 0.00 0.00 0.00 33 1018.8
20260904152537 98 225 3.0 7.0 0.00 0.00 0.00 34 1018.8
20260904152501 98 221 4.0 7.0 0.00 0.00 0.00 34 1018.8
20260904152321 98 235 2.0 6.0 0.00 0.00 0.00 34 1018.8
20260904152148 98 214 1.0 6.0 0.00 0.00 0.00 34 1018.7
20260904151753 98 184 1.0 10.0 0.00 0.00 0.00 35 1018.7
20260904151621 98 251 1.0 10.0 0.00 0.00 0.00 34 1018.7
20260904151538 98 209 0.0 10.0 0.00 0.00 0.00 34 1018.7
20260904151451 98 209 1.0 10.0 0.00 0.00 0.00 34 1018.7
20260904151337 97 221 5.0 10.0 0.00 0.00 0.00 34 1018.7
20260904151142 98 265 6.0 10.0 0.00 0.00 0.00 33 1018.7
20260904151006 98 279 3.0 9.0 0.00 0.00 0.00 33 1018.7
20260904150831 98 219 2.0 4.0 0.00 0.00 0.00 33 1018.7
20260904150738 98 204 2.0 5.0 0.00 0.00 0.00 33 1018.7
20260904150314 98 238 2.0 5.0 0.00 0.00 0.00 36 1018.6
20260904150136 98 153 1.0 5.0 0.00 0.00 0.00 36 1018.7
20260904150132 98 155 1.0 5.0 0.00 0.00 0.00 36 1018.7
20260904150016 98 207 2.0 5.0 0.00 0.00 0.00 35 1018.7
20260904145554 98 205 2.0 5.0 0.00 0.00 0.00 36 1018.8
20260904145456 98 191 2.0 5.0 0.00 0.00 0.00 35 1018.7
20260904145322 98 161 1.0 5.0 0.00 0.00 0.00 36 1018.7
20260904145205 97 180 2.0 3.0 0.00 0.00 0.00 36 1018.8
20260904145152 97 236 2.0 3.0 0.00 0.00 0.00 36 1018.8
20260904144632 97 109 2.0 4.0 0.00 0.00 0.00 36 1018.8
20260904144607 97 140 0.0 4.0 0.00 0.00 0.00 36 1018.8
20260904144507 97 205 1.0 6.0 0.00 0.00 0.00 36 1018.8
20260904144327 97 196 2.0 6.0 0.00 0.00 0.00 36 1018.9
20260904143544 96 202 1.0 6.0 0.00 0.00 0.00 37 1018.9
20260904143400 96 217 3.0 7.0 0.00 0.00 0.00 37 1019.0
20260904143340 96 229 2.0 7.0 0.00 0.00 0.00 37 1019.0
20260904143211 96 220 2.0 7.0 0.00 0.00 0.00 37 1018.9
20260904143012 96 233 2.0 7.0 0.00 0.00 0.00 37 1019.0
20260904142622 96 279 3.0 7.0 0.00 0.00 0.00 37 1019.1
20260904142443 96 237 4.0 8.0 0.00 0.00 0.00 37 1019.1
20260904142255 96 242 2.0 8.0 0.00 0.00 0.00 37 1019.2
20260904142240 96 231 2.0 8.0 0.00 0.00 0.00 37 1019.2
20260904142118 96 221 3.0 8.0 0.00 0.00 0.00 37 1019.2
20260904141935 96 249 4.0 8.0 0.00 0.00 0.00 37 1019.2
20260904141843 96 226 4.0 8.0 0.00 0.00 0.00 37 1019.2
20260904141751 96 251 2.0 8.0 0.00 0.00 0.00 37 1019.2
20260904141608 96 127 2.0 8.0 0.00 0.00 0.00 37 1019.3
20260904141438 96 248 3.0 8.0 0.00 0.00 0.00 37 1019.4
20260904141430 96 232 3.0 8.0 0.00 0.00 0.00 37 1019.4
20260904141255 96 290 2.0 8.0 0.00 0.00 0.00 36 1019.4
20260904141114 96 202 1.0 9.0 0.00 0.00 0.00 37 1019.5
20260904141017 96 218 2.0 9.0 0.00 0.00 0.00 37 1019.5
20260904140943 96 218 2.0 9.0 0.00 0.00 0.00 38 1019.5
20260904140801 96 212 3.0 9.0 0.00 0.00 0.00 37 1019.5
20260904140343 95 196 4.0 9.0 0.00 0.00 0.00 38 1019.4
20260904140219 95 274 2.0 9.0 0.00 0.00 0.00 37 1019.5
20260904140043 95 298 5.0 9.0 0.00 0.00 0.00 37 1019.5
20260904135921 95 280 4.0 9.0 0.00 0.00 0.00 37 1019.5
20260904135454 95 284 2.0 13.0 0.00 0.00 0.00 37 1019.5
20260904135321 94 325 2.0 13.0 0.00 0.00 0.00 38 1019.6
20260904135250 94 325 2.0 13.0 0.00 0.00 0.00 37 1019.5
20260904135143 94 289 4.0 13.0 0.00 0.00 0.00 37 1019.6
20260904135007 94 279 4.0 13.0 0.00 0.00 0.00 38 1019.6
20260904134902 94 268 9.0 13.0 0.00 0.00 0.00 37 1019.6
20260904134837 94 293 7.0 13.0 0.00 0.00 0.00 37 1019.6
20260904134654 94 285 6.0 8.0 0.00 0.00 0.00 36 1019.7
20260904134513 95 240 3.0 8.0 0.00 0.00 0.00 36 1019.7
20260904134443 95 265 3.0 8.0 0.00 0.00 0.00 36 1019.7
20260904133958 94 314 4.0 10.0 0.00 0.00 0.00 36 1019.6
20260904133836 94 350 4.0 10.0 0.00 0.00 0.00 36 1019.6
20260904133815 94 344 3.0 10.0 0.00 0.00 0.00 36 1019.6
20260904133632 95 236 4.0 10.0 0.00 0.00 0.00 36 1019.7
20260904133451 94 283 6.0 10.0 0.00 0.00 0.00 36 1019.7
20260904133425 94 280 6.0 10.0 0.00 0.00 0.00 36 1019.7
20260904133305 94 283 1.0 9.0 0.00 0.00 0.00 37 1019.6
20260904133134 94 151 1.0 6.0 0.00 0.00 0.00 36 1019.6
20260904133021 94 54 2.0 6.0 0.00 0.00 0.00 36 1019.6
20260904132952 94 165 2.0 8.0 0.00 0.00 0.00 37 1019.6
20260904132811 94 259 3.0 8.0 0.00 0.00 0.00 36 1019.6
20260904132631 94 260 3.0 9.0 0.00 0.00 0.00 35 1019.5
20260904132556 94 263 3.0 9.0 0.00 0.00 0.00 35 1019.5
20260904132449 94 300 2.0 9.0 0.00 0.00 0.00 35 1019.5
20260904132317 94 292 5.0 9.0 0.00 0.00 0.00 36 1019.6
20260904132154 93 273 5.0 9.0 0.00 0.00 0.00 36 1019.6
20260904132133 94 305 5.0 11.0 0.00 0.00 0.00 36 1019.6
20260904131401 93 298 3.0 11.0 0.00 0.00 0.00 35 1019.6
20260904131246 93 333 3.0 11.0 0.00 0.00 0.00 35 1019.6
20260904131113 93 269 8.0 11.0 0.00 0.00 0.00 35 1019.7
20260904130956 93 264 8.0 11.0 0.00 0.00 0.00 34 1019.7
20260904130931 93 276 7.0 10.0 0.00 0.00 0.00 34 1019.8
20260904130747 93 278 1.0 10.0 0.00 0.00 0.00 34 1019.7
20260904130336 93 254 2.0 10.0 0.00 0.00 0.00 34 1019.8
20260904130223 93 207 5.0 10.0 0.00 0.00 0.00 34 1019.8
20260904130049 93 282 4.0 10.0 0.00 0.00 0.00 33 1019.8
20260904125934 93 236 4.0 10.0 0.00 0.00 0.00 33 1019.7
20260904125908 93 241 4.0 10.0 0.00 0.00 0.00 33 1019.8
20260904125730 93 297 6.0 10.0 0.00 0.00 0.00 32 1019.8
20260904125540 93 270 6.0 10.0 0.00 0.00 0.00 32 1019.8
20260904125505 93 282 6.0 10.0 0.00 0.00 0.00 32 1019.8
20260904125351 93 301 3.0 8.0 0.00 0.00 0.00 36 1019.8
20260904125212 93 257 4.0 8.0 0.00 0.00 0.00 35 1019.8
20260904125058 93 261 2.0 8.0 0.00 0.00 0.00 36 1019.7
20260904125030 92 259 4.0 8.0 0.00 0.00 0.00 36 1019.8
20260904124858 92 247 4.0 8.0 0.00 0.00 0.00 36 1019.8
20260904124723 92 279 4.0 7.0 0.00 0.00 0.00 37 1019.8
20260904124653 92 302 4.0 7.0 0.00 0.00 0.00 36 1019.7
20260904124532 93 294 4.0 6.0 0.00 0.00 0.00 37 1019.8
20260904124124 93 233 4.0 6.0 0.00 0.00 0.00 38 1019.9
20260904124107 92 224 4.0 6.0 0.00 0.00 0.00 38 1019.8
20260904123926 92 257 2.0 5.0 0.00 0.00 0.00 39 1019.8
20260904123614 92 286 1.0 5.0 0.00 0.00 0.00 39 1019.8
20260904123517 92 286 2.0 8.0 0.00 0.00 0.00 39 1019.9
20260904123347 92 289 2.0 8.0 0.00 0.00 0.00 40 1019.8
20260904123228 92 48 2.0 8.0 0.00 0.00 0.00 39 1019.8
20260904123207 92 5 2.0 8.0 0.00 0.00 0.00 39 1019.8
20260904122754 92 250 6.0 10.0 0.00 0.00 0.00 39 1019.9
20260904122331 92 273 4.0 10.0 0.00 0.00 0.00 39 1019.9
20260904121937 92 267 6.0 10.0 0.00 0.00 0.00 36 1019.8
20260904121806 92 261 1.0 8.0 0.00 0.00 0.00 38 1020.0
20260904121630 92 314 1.0 8.0 0.00 0.00 0.00 37 1019.9
20260904121558 92 40 1.0 8.0 0.00 0.00 0.00 37 1019.9
20260904121449 92 32 3.0 8.0 0.00 0.00 0.00 36 1019.9
20260904121312 92 300 4.0 8.0 0.00 0.00 0.00 37 1019.9
20260904121145 91 288 5.0 8.0 0.00 0.00 0.00 37 1019.9
20260904120721 91 55 1.0 7.0 0.00 0.00 0.00 44 1020.0
20260904120608 91 150 1.0 7.0 0.00 0.00 0.00 44 1019.9
20260904120526 91 159 1.0 7.0 0.00 0.00 0.00 43 1020.0
20260904120438 91 274 2.0 7.0 0.00 0.00 0.00 44 1020.0
20260904120320 91 280 4.0 7.0 0.00 0.00 0.00 41 1020.0
20260904120141 91 284 4.0 7.0 0.00 0.00 0.00 41 1020.1
20260904120137 91 289 3.0 7.0 0.00 0.00 0.00 41 1020.1
20260904115956 91 308 1.0 7.0 0.00 0.00 0.00 44 1020.1
20260904115820 91 308 3.0 7.0 0.00 0.00 0.00 43 1020.0
20260904115739 91 308 3.0 7.0 0.00 0.00 0.00 43 1020.1
20260904115642 91 328 2.0 7.0 0.00 0.00 0.00 43 1020.0
20260904115032 91 279 2.0 6.0 0.00 0.00 0.00 43 1020.0
20260904114517 90 293 0.0 3.0 0.00 0.00 0.00 44 1020.0
20260904114133 90 293 0.0 3.0 0.00 0.00 0.00 41 1020.1
20260904114010 90 292 2.0 3.0 0.00 0.00 0.00 39 1020.1
20260904113850 90 294 0.0 3.0 0.00 0.00 0.00 43 1020.1
20260904113731 90 294 0.0 1.0 0.00 0.00 0.00 45 1020.1
20260904113637 90 294 0.0 1.0 0.00 0.00 0.00 47 1020.0
20260904113607 90 294 0.0 1.0 0.00 0.00 0.00 47 1020.0
20260904113538 90 294 0.0 1.0 0.00 0.00 0.00 47 1020.1
20260904113404 90 294 0.0 1.0 0.00 0.00 0.00 47 1020.0
20260904113259 89 294 1.0 2.0 0.00 0.00 0.00 47 1020.0
20260904112931 89 294 0.0 2.0 0.00 0.00 0.00 47 1020.0
20260904112521 89 294 0.0 3.0 0.00 0.00 0.00 48 1020.0
20260904112435 89 294 0.0 3.0 0.00 0.00 0.00 48 1020.1
20260904111339 88 294 0.0 3.0 0.00 0.00 0.00 49 1020.0
20260904111217 88 294 0.0 2.0 0.00 0.00 0.00 50 1020.0
20260904111122 88 294 0.0 3.0 0.00 0.00 0.00 49 1020.0
20260904111048 87 294 1.0 3.0 0.00 0.00 0.00 49 1020.0
20260904110937 87 294 0.0 3.0 0.00 0.00 0.00 50 1020.0
20260904110609 87 294 0.0 3.0 0.00 0.00 0.00 51 1020.0
20260904110111 87 294 1.0 3.0 0.00 0.00 0.00 51 1020.0
20260904110038 87 294 2.0 3.0 0.00 0.00 0.00 52 1019.9
20260904105949 87 294 1.0 3.0 0.00 0.00 0.00 52 1019.9
20260904105504 87 294 0.0 3.0 0.00 0.00 0.00 51 1019.9
20260904105455 87 294 0.0 3.0 0.00 0.00 0.00 51 1019.9
20260904104906 86 75 1.0 3.0 0.00 0.00 0.00 53 1020.0
20260904104821 86 75 1.0 3.0 0.00 0.00 0.00 53 1020.0
20260904104639 86 120 2.0 3.0 0.00 0.00 0.00 53 1020.0
20260904104514 86 134 2.0 3.0 0.00 0.00 0.00 54 1019.9
20260904104501 86 134 2.0 3.0 0.00 0.00 0.00 54 1019.9
20260904104304 86 129 2.0 3.0 0.00 0.00 0.00 54 1019.9
20260904104118 86 120 1.0 3.0 0.00 0.00 0.00 53 1020.0
20260904104031 86 134 2.0 3.0 0.00 0.00 0.00 53 1019.9
20260904103933 86 130 2.0 3.0 0.00 0.00 0.00 54 1020.0
20260904103733 85 131 1.0 3.0 0.00 0.00 0.00 54 1020.0
20260904103618 85 109 2.0 3.0 0.00 0.00 0.00 54 1019.9
20260904103556 85 109 2.0 3.0 0.00 0.00 0.00 54 1019.9
20260904103359 85 105 2.0 3.0 0.00 0.00 0.00 54 1020.0
20260904103220 85 119 1.0 3.0 0.00 0.00 0.00 55 1019.9
20260904103132 85 115 1.0 3.0 0.00 0.00 0.00 55 1019.9
20260904103039 85 128 1.0 3.0 0.00 0.00 0.00 55 1019.9
20260904102600 84 161 0.0 2.0 0.00 0.00 0.00 56 1019.9
20260904102545 84 161 0.0 2.0 0.00 0.00 0.00 56 1019.9
20260904102031 84 126 1.0 2.0 0.00 0.00 0.00 57 1020.0
20260904102016 84 126 1.0 3.0 0.00 0.00 0.00 57 1019.9
20260904101910 83 132 1.0 3.0 0.00 0.00 0.00 58 1019.9
20260904101720 83 155 0.0 3.0 0.00 0.00 0.00 59 1019.9
20260904101621 83 68 1.0 3.0 0.00 0.00 0.00 58 1019.9
20260904101554 83 68 1.0 3.0 0.00 0.00 0.00 59 1019.9
20260904101441 83 132 1.0 3.0 0.00 0.00 0.00 59 1019.9
20260904101303 82 155 1.0 3.0 0.00 0.00 0.00 60 1019.9
20260904101233 82 116 0.0 2.0 0.00 0.00 0.00 60 1019.9
20260904101127 82 76 0.0 2.0 0.00 0.00 0.00 61 1019.9
20260904101003 82 76 0.0 2.0 0.00 0.00 0.00 61 1019.9
20260904100630 81 76 0.0 2.0 0.00 0.00 0.00 62 1019.9
20260904100517 81 76 0.0 3.0 0.00 0.00 0.00 62 1019.8
20260904100358 80 76 1.0 4.0 0.00 0.00 0.00 62 1019.9
20260904100319 80 76 1.0 4.0 0.00 0.00 0.00 62 1019.9
20260904100226 80 73 1.0 4.0 0.00 0.00 0.00 63 1019.9
20260904100039 80 111 1.0 4.0 0.00 0.00 0.00 62 1019.8
20260904095917 80 111 2.0 4.0 0.00 0.00 0.00 62 1019.9
20260904095901 79 111 2.0 4.0 0.00 0.00 0.00 62 1019.9
20260904095718 79 155 1.0 4.0 0.00 0.00 0.00 64 1019.9
20260904095538 79 61 1.0 4.0 0.00 0.00 0.00 64 1019.9
20260904095505 79 60 1.0 4.0 0.00 0.00 0.00 64 1019.9
20260904095017 79 134 2.0 4.0 0.00 0.00 0.00 64 1019.8
20260904094842 78 61 2.0 4.0 0.00 0.00 0.00 64 1019.9
20260904094829 78 92 2.0 4.0 0.00 0.00 0.00 64 1019.9
20260904094647 78 53 2.0 4.0 0.00 0.00 0.00 64 1019.8
20260904094518 78 63 2.0 4.0 0.00 0.00 0.00 65 1019.9
20260904094119 78 121 2.0 4.0 0.00 0.00 0.00 66 1019.8
20260904093942 77 84 2.0 4.0 0.00 0.00 0.00 65 1019.8
20260904093804 77 153 1.0 4.0 0.00 0.00 0.00 66 1019.9
20260904093752 77 157 1.0 4.0 0.00 0.00 0.00 66 1019.9
20260904093612 77 90 2.0 4.0 0.00 0.00 0.00 66 1019.9
20260904093436 76 117 1.0 4.0 0.00 0.00 0.00 67 1019.9
20260904093342 76 78 2.0 4.0 0.00 0.00 0.00 67 1019.8
20260904093238 76 62 3.0 4.0 0.00 0.00 0.00 67 1019.8
20260904093059 76 128 2.0 4.0 0.00 0.00 0.00 68 1019.7
20260904092910 76 161 2.0 4.0 0.00 0.00 0.00 68 1019.8
20260904092738 76 170 3.0 4.0 0.00 0.00 0.00 68 1019.8
20260904092554 76 134 2.0 4.0 0.00 0.00 0.00 68 1019.7
20260904092459 75 115 3.0 4.0 0.00 0.00 0.00 67 1019.7
20260904092017 75 74 2.0 4.0 0.00 0.00 0.00 68 1019.7
20260904091836 75 82 2.0 4.0 0.00 0.00 0.00 68 1019.7
20260904091706 75 70 2.0 3.0 0.00 0.00 0.00 68 1019.8
20260904091523 75 56 2.0 3.0 0.00 0.00 0.00 69 1019.7
20260904091428 75 60 1.0 3.0 0.00 0.00 0.00 69 1019.8
20260904091338 75 67 0.0 3.0 0.00 0.00 0.00 69 1019.8
20260904091226 75 76 0.0 2.0 0.00 0.00 0.00 69 1019.8
20260904090539 74 87 1.0 2.0 0.00 0.00 0.00 71 1019.9
20260904090413 74 80 1.0 2.0 0.00 0.00 0.00 71 1019.9
20260904090313 74 70 1.0 3.0 0.00 0.00 0.00 72 1019.7
20260904085823 73 131 0.0 3.0 0.00 0.00 0.00 72 1019.9
20260904085702 73 131 1.0 4.0 0.00 0.00 0.00 73 1019.8
20260904085546 72 124 1.0 4.0 0.00 0.00 0.00 73 1019.8
20260904085415 72 74 2.0 4.0 0.00 0.00 0.00 73 1019.8
20260904084643 72 131 2.0 4.0 0.00 0.00 0.00 73 1019.7
20260904084456 71 92 2.0 4.0 0.00 0.00 0.00 73 1019.7
20260904083916 71 135 3.0 4.0 0.00 0.00 0.00 73 1019.8
20260904083818 71 134 2.0 4.0 0.00 0.00 0.00 73 1019.7
20260904083724 71 134 2.0 4.0 0.00 0.00 0.00 74 1019.7
20260904082928 71 66 2.0 4.0 0.00 0.00 0.00 75 1019.6
20260904082350 70 107 1.0 4.0 0.00 0.00 0.00 76 1019.7
20260904081948 70 115 1.0 4.0 0.00 0.00 0.00 77 1019.7
20260904081808 69 102 2.0 4.0 0.00 0.00 0.00 77 1019.7
20260904081615 69 81 2.0 3.0 0.00 0.00 0.00 77 1019.7
20260904081427 69 111 2.0 3.0 0.00 0.00 0.00 78 1019.7
20260904081301 69 119 1.0 3.0 0.00 0.00 0.00 79 1019.6
20260904080502 68 59 1.0 3.0 0.00 0.00 0.00 80 1019.7
20260904075333 67 107 2.0 3.0 0.00 0.00 0.00 80 1019.7
20260904075238 67 77 2.0 3.0 0.00 0.00 0.00 81 1019.7
20260904075145 67 67 2.0 3.0 0.00 0.00 0.00 81 1019.7
20260904074944 67 63 1.0 2.0 0.00 0.00 0.00 83 1019.7
20260904074754 66 74 1.0 2.0 0.00 0.00 0.00 84 1019.7
20260904074625 66 64 1.0 3.0 0.00 0.00 0.00 84 1019.7
20260904074444 65 67 1.0 4.0 0.00 0.00 0.00 85 1019.6
20260904074040 65 132 1.0 4.0 0.00 0.00 0.00 85 1019.7
20260904073849 65 108 1.0 4.0 0.00 0.00 0.00 86 1019.6
20260904073725 64 105 2.0 5.0 0.00 0.00 0.00 86 1019.6
20260904073713 64 103 2.0 5.0 0.00 0.00 0.00 86 1019.6
20260904073524 64 82 2.0 5.0 0.00 0.00 0.00 86 1019.6
20260904073358 64 86 2.0 5.0 0.00 0.00 0.00 87 1019.5
20260904073256 64 95 3.0 5.0 0.00 0.00 0.00 86 1019.6
20260904073207 64 109 2.0 5.0 0.00 0.00 0.00 87 1019.5
20260904073016 64 97 4.0 5.0 0.00 0.00 0.00 86 1019.6
20260904072835 64 93 3.0 5.0 0.00 0.00 0.00 87 1019.6
20260904072818 64 78 3.0 5.0 0.00 0.00 0.00 87 1019.6
20260904071231 63 112 3.0 4.0 0.00 0.00 0.00 88 1019.7
20260904071047 63 67 2.0 4.0 0.00 0.00 0.00 89 1019.6
20260904071026 63 84 2.0 3.0 0.00 0.00 0.00 89 1019.7
20260904070736 62 84 1.0 3.0 0.00 0.00 0.00 90 1019.7
20260904070600 62 74 2.0 3.0 0.00 0.00 0.00 91 1019.7
20260904070451 62 74 2.0 3.0 0.00 0.00 0.00 91 1019.6
20260904070331 62 82 1.0 3.0 0.00 0.00 0.00 91 1019.6
20260904070146 62 92 0.0 1.0 0.00 0.00 0.00 92 1019.6
20260904070045 61 92 0.0 1.0 0.00 0.00 0.00 92 1019.7
20260904065614 61 92 0.0 1.0 0.00 0.00 0.00 92 1019.7
20260904065459 61 92 0.0 1.0 0.00 0.00 0.00 93 1019.6
20260904065415 61 113 0.0 1.0 0.00 0.00 0.00 93 1019.6
20260904065252 60 113 0.0 1.0 0.00 0.00 0.00 93 1019.6
20260904065137 60 113 0.0 3.0 0.00 0.00 0.00 94 1019.6
20260904065011 60 78 0.0 3.0 0.00 0.00 0.00 94 1019.6
20260904064455 60 78 0.0 3.0 0.00 0.00 0.00 93 1019.6
20260904064423 60 78 1.0 3.0 0.00 0.00 0.00 93 1019.6
20260904064238 60 88 1.0 3.0 0.00 0.00 0.00 94 1019.6
20260904064114 60 76 1.0 3.0 0.00 0.00 0.00 94 1019.5
20260904063929 59 59 0.0 2.0 0.00 0.00 0.00 94 1019.5
20260904063716 59 89 0.0 1.0 0.00 0.00 0.00 94 1019.6
20260904063625 59 79 0.0 0.0 0.00 0.00 0.00 94 1019.6
20260904063233 59 79 0.0 0.0 0.00 0.00 0.00 94 1019.6
20260904062811 59 79 0.0 0.0 0.00 0.00 0.00 94 1019.7
20260904062616 59 79 0.0 0.0 0.00 0.00 0.00 95 1019.7
20260904062528 59 79 0.0 0.0 0.00 0.00 0.00 95 1019.7
20260904062500 59 79 0.0 0.0 0.00 0.00 0.00 95 1019.7
20260904062017 59 79 0.0 0.0 0.00 0.00 0.00 95 1019.6
20260904061916 59 79 0.0 0.0 0.00 0.00 0.00 95 1019.7
20260904061711 59 79 0.0 0.0 0.00 0.00 0.00 96 1019.6
20260904061553 58 79 0.0 0.0 0.00 0.00 0.00 95 1019.7
20260904061522 58 79 0.0 0.0 0.00 0.00 0.00 96 1019.6
20260904060753 76 53 1.0 2.0 0.00 0.00 0.00 57 1021.6
20260904060655 58 79 0.0 0.0 0.00 0.00 0.00 96 1019.4
20260904060455 58 79 0.0 0.0 0.00 0.00 0.00 96 1019.6
20260904060402 58 79 0.0 0.0 0.00 0.00 0.00 96 1019.5
20260904060329 58 79 0.0 0.0 0.00 0.00 0.00 96 1019.5
20260904060303 58 79 0.0 0.0 0.00 0.00 0.00 96 1019.5
20260904060103 58 79 0.0 0.0 0.00 0.00 0.00 96 1019.4
20260904060004 58 79 0.0 0.0 0.00 0.00 0.00 96 1019.4
20260904055757 57 79 0.0 0.0 0.00 0.00 0.00 96 1019.5
20260904055228 57 79 0.0 0.0 0.00 0.00 0.00 96 1019.4
20260904054630 57 79 0.0 0.0 0.00 0.00 0.00 96 1019.3
20260904054412 57 79 0.0 0.0 0.00 0.00 0.00 96 1019.4
20260904054248 78 53 0.0 2.0 0.00 0.00 0.00 54 1021.6
20260904054211 57 79 0.0 0.0 0.00 0.00 0.00 95 1019.2
20260904054142 57 79 0.0 0.0 0.00 0.00 0.00 95 1019.3
20260904054059 57 79 0.0 0.0 0.00 0.00 0.00 95 1019.3
20260904053812 57 79 0.0 0.0 0.00 0.00 0.00 95 1019.2
20260904053702 57 79 0.0 0.0 0.00 0.00 0.00 95 1019.3
20260904053514 57 79 0.0 0.0 0.00 0.00 0.00 95 1019.2
20260904053429 57 79 0.0 0.0 0.00 0.00 0.00 95 1019.2
20260904053403 57 79 0.0 0.0 0.00 0.00 0.00 95 1019.3
20260904052939 57 79 0.0 0.0 0.00 0.00 0.00 95 1019.2
20260904052844 57 79 0.0 0.0 0.00 0.00 0.00 95 1019.3
20260904052712 57 79 0.0 0.0 0.00 0.00 0.00 95 1019.3
20260904052614 57 79 0.0 0.0 0.00 0.00 0.00 95 1019.3
20260904052549 57 79 0.0 0.0 0.00 0.00 0.00 95 1019.3
20260904052525 57 79 0.0 0.0 0.00 0.00 0.00 95 1019.3
20260904052402 57 79 0.0 0.0 0.00 0.00 0.00 95 1019.3
20260904052313 57 79 0.0 0.0 0.00 0.00 0.00 95 1019.3
20260904052218 57 79 0.0 0.0 0.00 0.00 0.00 95 1019.2
20260904052137 57 79 0.0 0.0 0.00 0.00 0.00 96 1019.4
20260904052113 57 79 0.0 0.0 0.00 0.00 0.00 96 1019.3
20260904052048 57 79 0.0 0.0 0.00 0.00 0.00 96 1019.3
20260904051636 57 79 0.0 3.0 0.00 0.00 0.00 96 1019.3
20260904050523 57 79 0.0 3.0 0.00 0.00 0.00 95 1019.3
20260904050313 57 69 0.0 1.0 0.00 0.00 0.00 95 1019.2
20260904045931 57 46 0.0 2.0 0.00 0.00 0.00 95 1019.3
20260904045729 57 46 0.0 2.0 0.00 0.00 0.00 95 1019.4
20260904045359 57 46 0.0 3.0 0.00 0.00 0.00 95 1019.3
20260904045316 57 46 0.0 3.0 0.00 0.00 0.00 95 1019.3
20260904045122 57 46 1.0 3.0 0.00 0.00 0.00 95 1019.3
20260904045005 57 46 2.0 3.0 0.00 0.00 0.00 95 1019.4
20260904044753 57 46 2.0 2.0 0.00 0.00 0.00 94 1019.4
20260904044404 57 46 0.0 0.0 0.00 0.00 0.00 94 1019.4
20260904043954 57 46 0.0 0.0 0.00 0.00 0.00 95 1019.4
20260904043854 57 46 0.0 0.0 0.00 0.00 0.00 95 1019.5
20260904043436 57 46 0.0 0.0 0.00 0.00 0.00 95 1019.5
20260904043057 57 46 0.0 0.0 0.00 0.00 0.00 94 1019.5
20260904042920 57 46 0.0 0.0 0.00 0.00 0.00 94 1019.6
20260904042743 57 46 0.0 0.0 0.00 0.00 0.00 94 1019.5
20260904042636 57 46 0.0 0.0 0.00 0.00 0.00 94 1019.5
20260904042441 57 46 0.0 0.0 0.00 0.00 0.00 94 1019.6
20260904042104 57 46 0.0 0.0 0.00 0.00 0.00 94 1019.4
20260904041909 57 46 0.0 0.0 0.00 0.00 0.00 94 1019.4
20260904041853 78 53 0.0 2.0 0.00 0.00 0.00 53 1021.5
20260904041809 78 53 1.0 2.0 0.00 0.00 0.00 55 1021.5
20260904041753 80 148 0.0 0.0 0.00 0.00 0.00 51 1021.5
20260904041708 57 46 0.0 0.0 0.00 0.00 0.00 94 1019.5
20260904041541 57 46 0.0 0.0 0.00 0.00 0.00 94 1019.4
20260904041319 57 46 0.0 0.0 0.00 0.00 0.00 94 1019.4
20260904041227 57 46 0.0 0.0 0.00 0.00 0.00 94 1019.4
20260904041140 57 46 0.0 0.0 0.00 0.00 0.00 94 1019.4
20260904041016 57 46 0.0 0.0 0.00 0.00 0.00 94 1019.4
20260904040924 57 46 0.0 0.0 0.00 0.00 0.00 94 1019.4
20260904040823 58 46 0.0 0.0 0.00 0.00 0.00 94 1019.4
20260904040620 58 46 0.0 0.0 0.00 0.00 0.00 93 1019.5
20260904040218 58 46 0.0 0.0 0.00 0.00 0.00 94 1019.6
20260904040051 58 46 0.0 0.0 0.00 0.00 0.00 94 1019.6
20260904035709 58 46 0.0 0.0 0.00 0.00 0.00 94 1019.6
20260904035633 82 148 0.0 0.0 0.00 0.00 0.00 49 1021.4
20260904035544 58 46 0.0 0.0 0.00 0.00 0.00 94 1019.6
20260904035340 58 46 0.0 0.0 0.00 0.00 0.00 94 1019.6
20260904035255 58 46 0.0 0.0 0.00 0.00 0.00 94 1019.6
20260904035217 58 46 0.0 0.0 0.00 0.00 0.00 94 1019.6
20260904034817 82 148 0.0 0.0 0.00 0.00 0.00 49 1021.5
20260904034712 58 46 0.0 0.0 0.00 0.00 0.00 94 1019.7
20260904034554 58 46 0.0 0.0 0.00 0.00 0.00 94 1019.6
20260904034323 58 46 0.0 0.0 0.00 0.00 0.00 94 1019.7
20260904034217 58 46 0.0 0.0 0.00 0.00 0.00 93 1019.6
20260904034153 58 46 0.0 0.0 0.00 0.00 0.00 93 1019.6
20260904034040 58 46 0.0 0.0 0.00 0.00 0.00 93 1019.6
20260904033939 58 46 0.0 0.0 0.00 0.00 0.00 93 1019.7
20260904033824 58 46 0.0 0.0 0.00 0.00 0.00 93 1019.7
20260904033651 58 46 0.0 0.0 0.00 0.00 0.00 93 1019.7
20260904033104 58 46 0.0 0.0 0.00 0.00 0.00 93 1019.7
20260904032923 58 46 0.0 0.0 0.00 0.00 0.00 93 1019.8
20260904032829 58 46 0.0 0.0 0.00 0.00 0.00 93 1019.8
20260904032628 58 46 0.0 0.0 0.00 0.00 0.00 93 1019.8
20260904032551 58 46 0.0 0.0 0.00 0.00 0.00 93 1019.9
20260904031837 58 46 0.0 0.0 0.00 0.00 0.00 92 1019.9
20260904031541 58 46 0.0 0.0 0.00 0.00 0.00 92 1019.9
20260904031311 58 46 0.0 0.0 0.00 0.00 0.00 92 1020.0
20260904031126 58 46 0.0 0.0 0.00 0.00 0.00 91 1019.9
20260904031058 58 46 0.0 0.0 0.00 0.00 0.00 91 1019.9
20260904031005 58 46 0.0 0.0 0.00 0.00 0.00 92 1019.8
20260904030749 58 46 0.0 0.0 0.00 0.00 0.00 92 1019.8
20260904030645 58 46 0.0 0.0 0.00 0.00 0.00 92 1019.9
20260904030448 58 46 0.0 0.0 0.00 0.00 0.00 91 1020.0
20260904030350 58 46 0.0 0.0 0.00 0.00 0.00 91 1020.0
20260904030304 58 46 0.0 0.0 0.00 0.00 0.00 91 1019.9
20260904025851 58 46 0.0 0.0 0.00 0.00 0.00 91 1019.9
20260904025744 58 46 0.0 0.0 0.00 0.00 0.00 91 1020.0
20260904025307 58 46 0.0 0.0 0.00 0.00 0.00 91 1020.0
20260904025300 86 148 0.0 0.0 0.00 0.00 0.00 44 1021.3
20260904025114 58 46 0.0 0.0 0.00 0.00 0.00 91 1020.1
20260904025016 58 46 0.0 0.0 0.00 0.00 0.00 91 1020.1
20260904024937 58 46 0.0 0.0 0.00 0.00 0.00 91 1020.1
20260904024818 58 46 0.0 0.0 0.00 0.00 0.00 91 1020.0
20260904024725 58 46 0.0 0.0 0.00 0.00 0.00 91 1020.0
20260904024549 58 46 0.0 0.0 0.00 0.00 0.00 91 1020.0
20260904023941 58 46 0.0 0.0 0.00 0.00 0.00 91 1020.0
20260904023833 86 148 0.0 0.0 0.00 0.00 0.00 44 1021.3
20260904023755 87 148 0.0 2.0 0.00 0.00 0.00 43 1021.4
20260904023714 58 46 0.0 0.0 0.00 0.00 0.00 91 1020.0
20260904023617 58 46 0.0 0.0 0.00 0.00 0.00 91 1020.0
20260904023412 59 46 0.0 0.0 0.00 0.00 0.00 91 1020.0
20260904023301 59 46 0.0 0.0 0.00 0.00 0.00 91 1020.1
20260904022926 58 46 0.0 0.0 0.00 0.00 0.00 91 1020.0
20260904022729 58 46 0.0 0.0 0.00 0.00 0.00 90 1020.2
20260904022614 58 46 0.0 0.0 0.00 0.00 0.00 90 1020.1
20260904022601 58 46 0.0 0.0 0.00 0.00 0.00 90 1020.1
20260904022425 59 46 0.0 0.0 0.00 0.00 0.00 90 1020.1
20260904022353 59 46 0.0 0.0 0.00 0.00 0.00 90 1020.2
20260904022255 59 46 0.0 0.0 0.00 0.00 0.00 90 1020.1
20260904022128 59 46 0.0 0.0 0.00 0.00 0.00 90 1020.1
20260904022043 59 46 0.0 0.0 0.00 0.00 0.00 90 1020.1
20260904022025 59 46 0.0 0.0 0.00 0.00 0.00 90 1020.1
20260904021951 59 46 0.0 0.0 0.00 0.00 0.00 90 1020.1
20260904021858 59 46 0.0 0.0 0.00 0.00 0.00 90 1020.1
20260904021811 59 46 0.0 0.0 0.00 0.00 0.00 90 1020.1
20260904021143 59 46 0.0 0.0 0.00 0.00 0.00 90 1020.2
20260904021124 59 46 0.0 0.0 0.00 0.00 0.00 90 1020.2
20260904020753 59 46 0.0 0.0 0.00 0.00 0.00 89 1020.2
20260904020659 59 46 0.0 0.0 0.00 0.00 0.00 89 1020.3
20260904020644 59 46 0.0 0.0 0.00 0.00 0.00 89 1020.2
20260904020553 59 46 0.0 0.0 0.00 0.00 0.00 89 1020.2
20260904015935 60 46 0.0 0.0 0.00 0.00 0.00 90 1020.3
20260904015858 60 46 0.0 3.0 0.00 0.00 0.00 89 1020.3
20260904015219 60 46 0.0 5.0 0.00 0.00 0.00 89 1020.4
20260904015121 60 46 1.0 5.0 0.00 0.00 0.00 89 1020.3
20260904015056 60 46 1.0 5.0 0.00 0.00 0.00 89 1020.3
20260904015011 60 46 1.0 5.0 0.00 0.00 0.00 89 1020.3
20260904014838 60 45 2.0 5.0 0.00 0.00 0.00 88 1020.2
20260904014644 60 11 2.0 5.0 0.00 0.00 0.00 88 1020.3
20260904014455 60 346 2.0 4.0 0.00 0.00 0.00 87 1020.4
20260904014303 60 79 1.0 4.0 0.00 0.00 0.00 87 1020.4
20260904014231 60 42 1.0 4.0 0.00 0.00 0.00 87 1020.3
20260904014126 60 101 1.0 4.0 0.00 0.00 0.00 87 1020.5
20260904013346 61 36 0.0 0.0 0.00 0.00 0.00 87 1020.5
20260904013229 61 36 0.0 0.0 0.00 0.00 0.00 87 1020.6
20260904013153 61 36 0.0 0.0 0.00 0.00 0.00 87 1020.7